Nenana, AK

8:52 AM AKDT on August 21, 2017 (GMT -0800)
Nenana Municipal

Weather History for PANN - September, 2012

Change the Weather History Date:

Tuesday, September 4, 2012

  Actual Average Record
Temperature  
Mean Temperature 58 °F -  
Max Temperature 66 °F 58 °F 77 °F (1949)
Min Temperature 49 °F 38 °F 37 °F (2014)
Degree Days  
Heating Degree Days 8    
Growing Degree Days 8 (Base 50)    
Moisture  
Dew Point 42 °F    
Average Humidity 70    
Maximum Humidity 100    
Minimum Humidity 33    
Precipitation  
Precipitation 0.28 in - - ()
Sea Level Pressure  
Sea Level Pressure 29.73 in    
Wind  
Wind Speed 5 mph (SSE)    
Max Wind Speed 20 mph    
Max Gust Speed 33 mph    
Visibility 9 miles    
Events Rain    
Averages and records for this station are not official NWS values.
T = Trace of Precipitation, MM = Missing Value Source: NWS Daily Summary

Daily Weather History Graph

Daily Weather History Graph

Search for Another Location

Airport or City:

Trip Planner

Search our weather history database for the weather conditions in past years. The results will help you decide how hot, cold, wet, or windy it might be!

Date:

Astronomy

Sep. 04, 2012 Rise Set
Actual Time 6:48 AM AKDT 8:59 PM AKDT
Civil Twilight 5:55 AM AKDT 9:52 PM AKDT
Nautical Twilight 4:43 AM AKDT 11:02 PM AKDT
Astronomical Twilight 2:40 AM AKDT 12:55 AM AKDT
Moon 8:51 PM AKDT (9/4) 1:07 PM AKDT (9/4)
Length of Visible Light 15h 56m
Length of Day
14h 11m
Waning Gibbous, 82% of the Moon is Illuminated
Sep 4
Waning Gibbous
Sep 8
Last Quarter
Sep 15
New
Sep 22
First Quarter
Sep 29
Full

Hourly Weather History & Observations

Time (AKDT) Temp. Dew Point Humidity Pressure Visibility Wind Dir Wind Speed Gust Speed Precip Events Conditions
12:53 AM 52.0 °F 46.9 °F 83% 29.60 in 10.0 mi South 4.6 mph - 0.00 in   Overcast
1:53 AM 52.0 °F 48.0 °F 86% 29.64 in 10.0 mi Calm Calm - 0.00 in Rain Light Rain
2:53 AM 51.1 °F 48.0 °F 89% 29.68 in 10.0 mi Calm Calm - 0.02 in Rain Light Rain
3:53 AM 50.0 °F 46.9 °F 89% 29.71 in 10.0 mi SW 5.8 mph - 0.01 in Rain Light Rain
4:53 AM 48.9 °F 46.0 °F 90% 29.75 in 10.0 mi SSW 3.5 mph - 0.00 in Rain Light Rain
5:53 AM 48.9 °F 46.0 °F 90% 29.77 in 10.0 mi Calm Calm - 0.02 in Rain Light Rain
6:53 AM 46.0 °F 44.1 °F 93% 29.78 in 10.0 mi Calm Calm - 0.00 in   Mostly Cloudy
7:03 AM 44.6 °F 44.6 °F 100% 29.76 in 1.8 mi Calm Calm - N/A   Scattered Clouds
7:14 AM 44.6 °F 42.8 °F 93% 29.76 in 3.0 mi Calm Calm - N/A   Partly Cloudy
7:48 AM 42.8 °F 41.0 °F 93% 29.76 in 1.8 mi Calm Calm - N/A   Mostly Cloudy
7:53 AM 44.1 °F 42.1 °F 93% 29.78 in 1.8 mi Calm Calm - N/A   Mostly Cloudy
7:56 AM 44.6 °F 42.8 °F 93% 29.75 in 3.0 mi Calm Calm - N/A   Mostly Cloudy
8:53 AM 50.0 °F 45.0 °F 83% 29.77 in 10.0 mi Calm Calm - N/A   Scattered Clouds
9:53 AM 53.1 °F 43.0 °F 69% 29.76 in 10.0 mi Calm Calm - N/A   Clear
10:53 AM 53.1 °F 45.0 °F 74% 29.76 in 10.0 mi ESE 11.5 mph - N/A   Clear
11:53 AM 55.0 °F 45.0 °F 69% 29.73 in 10.0 mi East 12.7 mph - N/A   Clear
12:53 PM 55.9 °F 45.0 °F 67% 29.69 in 10.0 mi East 11.5 mph 20.7 mph N/A   Clear
1:53 PM 62.1 °F 41.0 °F 46% 29.66 in 10.0 mi East 16.1 mph 21.9 mph N/A   Clear
2:53 PM 64.0 °F 34.0 °F 33% 29.62 in 10.0 mi SSE 16.1 mph 23.0 mph N/A   Clear
3:53 PM 62.1 °F 34.0 °F 35% 29.60 in 10.0 mi SSE 16.1 mph 24.2 mph N/A   Clear
4:53 PM 62.1 °F 33.1 °F 34% 29.56 in 10.0 mi South 18.4 mph 31.1 mph N/A   Clear
5:53 PM 60.1 °F 34.0 °F 38% 29.54 in 10.0 mi SSE 19.6 mph 33.4 mph N/A   Clear
6:53 PM 59.0 °F 36.0 °F 42% 29.52 in 10.0 mi South 9.2 mph - N/A   Clear
7:53 PM 57.9 °F 36.0 °F 44% 29.51 in 10.0 mi South 11.5 mph - N/A   Clear
8:53 PM 57.9 °F 35.1 °F 42% 29.49 in 10.0 mi SSE 12.7 mph 18.4 mph N/A   Partly Cloudy
9:53 PM 57.0 °F 35.1 °F 44% 29.48 in 10.0 mi SSE 10.4 mph - N/A   Clear
10:53 PM 57.0 °F 35.1 °F 44% 29.49 in 10.0 mi South 11.5 mph 20.7 mph N/A   Overcast
11:53 PM 57.9 °F 34.0 °F 41% 29.47 in 10.0 mi South 16.1 mph 26.5 mph N/A   Clear